Regional Weather Roundup
Issued by NWS Lake Charles, LA

Home | Current Version | Previous Version | Text Only | Print | Product List | Glossary On
Versions: 1 2 3 4 5 6 7 8 9 10 11 12 13 14 15 16 17 18 19 20 21 22 23 24 25 26 27 28 29 30 31 32 33 34 35 36 37 38 39 40 41 42 43 44 45 46 47 48 49 50
000
ASUS44 KLCH 301510
RWRLCH
REGIONAL WEATHER ROUNDUP
NATIONAL WEATHER SERVICE LAKE CHARLES LA
1000 AM CDT SAT APR 30 2016

Note: "fair" indicates few or no clouds below 12,000 feet with no
significant weather and/or obstructions to visibility.


ACROSS SOUTHEAST TEXAS

CITY           SKY/WX    TMP DP  RH WIND       PRES   REMARKS
BEAUMONT       CLOUDY    70  67  90 N7        29.75R
BEAUMONT CITY  LGT RAIN  68  65  90 N10       29.78R
ORANGE         CLOUDY    69  66  89 NW6       29.77S
JASPER         LGT RAIN  67  65  95 N6        29.81F
$$

ACROSS CENTRAL LOUISIANA

CITY           SKY/WX    TMP DP  RH WIND       PRES   REMARKS
LEESVILLE      LGT RAIN  73  70  88 W8        29.78R FOG
FULLERTON      CLOUDY    73  71  93 VRB5      29.73R
ALEXANDRIA INT RAIN      72  71  97 E15G22    29.73F FOG
ESLER FIELD    CLOUDY    73  71  93 E7        29.80F FOG
DERIDDER       LGT RAIN  70  69  96 CALM      29.77S
OAKDALE        TSTM      73  72  97 E14G22    29.77F
OPELOUSAS      CLOUDY   N/A N/A N/A NE5       29.79R THUNDER
$$

ACROSS SOUTHWEST AND SOUTH CENTRAL LOUISIANA

CITY           SKY/WX    TMP DP  RH WIND       PRES   REMARKS
SULPHUR        CLOUDY    70  69  97 NW6       29.76R
LAKE CHARLES   LGT RAIN  69  67  93 CALM      29.75R
CHENNAULT INT  RAIN      68  66  94 E6        29.74F
CAMERON PHI    FOG       70  68  94 N10G17    29.78R VSB 3/4
DEQUINCY       LGT RAIN  68  68 100 CALM      29.76R
JENNINGS       TSTM      66  66 100 W10G36    29.75R VSB 1
LAFAYETTE      CLOUDY    78  72  81 S9        29.78R
NEW IBERIA     CLOUDY    78  72  81 S20G29    29.77R
ABBEVILLE      CLOUDY    77  74  91 S14G21    29.77R
PATTERSON      NOT AVBL
SALT POINT       N/A     78  75  90 SE9G20    29.76R
$$

SELECTED SITES ACROSS THE REGION

CITY           SKY/WX    TMP DP  RH WIND       PRES   REMARKS
HOUSTON BUSH   PTSUNNY   69  67  93 E18G24    29.75R
HOUSTON HOBBY  CLOUDY    70  68  93 NE16G26   29.75R
GALVESTON      MOSUNNY   79  75  87 S13       29.73R FOG
COLLEGE STAT   SUNNY     74  69  85 E12       29.73R
CONROE         MOSUNNY   70  65  84 E8G21     29.75R
HUNTSVILLE     MOSUNNY   73  66  78 E8        29.74R
LUFKIN         CLOUDY    68  66  93 VRB3      29.71F
SHREVEPORT     CLOUDY    69  65  86 SW6       29.78R
MONROE         RAIN      67  65  93 N9        29.86F
NATCHEZ MS     CLOUDY    73  66  78 E9        29.85S
BATON ROUGE    CLOUDY    78  70  76 SE12      29.79F
N.O. INTL ARPT CLOUDY    81  72  74 SE14      29.83R
SLIDELL        CLOUDY    80  74  81 S16G24    29.85R
$$

MARINE REPORTS

STATION/POSITION TIME  SKY/WX   TEMP    WIND        PRES    VSBY
                                AIR SEA DIR/SP/G
                 (UTC)          (F)     (DEG/KT/KT) (MB)    (MI)
BUOY 30 S HIGH I 1450            77 76  200/  8/ 10 1006.5
WVE H/P(F/S)=  5/ 7

SEA RIM ST PARK  1500            73     360/  8/  9 1008.0R
PORT ARTHUR      1400               75  360/  8/ 10 1007.4R
SABINE PASS N    1400            76 76  220/  6/ 11 1008.0R
TEXAS POINT      NOT AVBL
CALCASIEU PASS   1400            76 78  200/ 26/ 30 1004.4R
LK CHARLES BEACH 1400            68 74              1007.5R
MARSH ISLAND     1400            77     160/ 23/ 27   N/A
FRESH WATER LOCK 1400            77 78  130/ 17/ 23 1007.0F
AMERADA PASS     1400            78 73  140/ 11/ 19 1007.7R
$$



USA.gov is the U.S. government's official web portal to all federal, state and local government web resources and services.